sat.trackr.live / text

‹ back to catalog

STARLINK-37977

NORAD 69687 · 2026-145L

PAYLOAD ACTIVE UNKNOWN

§ Identity

Operator
Country
US
Launch date
2026-06-25
Launch site
AFWTR
Launch vehicle
Mass (kg)
RCS (m²)

Purposes: comms

External: N2YO · Heavens-Above · Gunter

§ Orbital elements

Epoch: 2026-09-19T11:02:08.607840Z

Period
93.91 min
Inclination
97.2853°
Eccentricity
0.0001499
Mean motion
15.33437427 rev/d
Perigee alt
464.5 km
Apogee alt
466.6 km
Semi-major
6,843.7 km
B*
5.8006e-4
RAAN
109.1372°
Arg perigee
66.6617°
Mean anomaly
293.4783°
Rev number
1,338

§ Raw data

STARLINK-379771 69687U 26145L   26262.45982185  .00018694  00000+0  58006-3 0  99932 69687  97.2853 109.1372 0001499  66.6617 293.4783 15.33437427 13380

JSON: /api/v1/satellites/69687 · /tle

For live sub-satellite position, see the globe view (requires WebGL).

§ Visibility from observer

Set your observer location to see the next 7 days of passes ≥ 10°. The values pass through the URL so the page stays shareable.

No JS? Fill the form by hand. The geolocation button needs JavaScript.